Location: Central Coast
(33.3208°S, 151.2336°E)
Time: 23:36:53
(UTC+11:00)

Vanguard 2 Rocket - Visible Passes

Search period start: 18 December 2017 00:00
Search period end: 28 December 2017 00:00
Orbit: 556 x 3326 km, 32.9° (Epoch: 17 December)

Date Brightness Start Highest point End Pass type
(mag) Time Alt. Az. Time Alt. Az. Time Alt. Az.
18 Dec 10.4 02:37:34 12° NNE 02:41:10 13° NE 02:46:53 10° ENE visible
18 Dec 9.4 04:44:04 10° NNW 04:57:27 35° NNE 05:05:55 10° E visible
19 Dec 9.8 03:47:03 16° NNW 03:56:49 29° NNE 04:06:04 10° E visible
20 Dec 10.1 02:50:41 20° N 02:55:55 23° NNE 03:05:24 10° ENE visible
20 Dec 9.0 04:57:02 10° NW 05:12:09 49° NNE 05:21:05 10° E visible
21 Dec 10.4 01:54:16 16° NE 01:54:49 16° NE 02:03:14 10° ENE visible
21 Dec 9.4 04:00:02 19° NNW 04:11:28 41° NNE 04:21:38 10° E visible
22 Dec 9.8 03:03:33 26° N 03:10:31 34° NNE 03:21:38 10° E visible
22 Dec 8.8 05:10:39 10° NW 05:26:46 63° NNE 05:36:00 10° E visible
23 Dec 10.1 02:06:59 26° NNE 02:09:22 26° NE 02:20:48 10° E visible
23 Dec 9.2 04:12:45 19° NW 04:26:04 54° NNE 04:36:42 10° E visible
24 Dec 10.4 01:10:21 19° NE 01:10:21 19° NE 01:18:34 10° ENE visible
24 Dec 9.5 03:16:06 29° NNW 03:25:01 46° NNE 03:37:01 10° E visible
25 Dec 9.8 02:19:24 34° N 02:23:45 37° NNE 02:36:45 10° E visible
25 Dec 9.0 04:25:09 16° WNW 04:40:37 67° NNE 04:51:32 10° E visible
26 Dec 10.0 01:22:37 29° NE 01:22:37 29° NE 01:35:38 10° E visible
26 Dec 9.3 03:28:22 29° NW 03:39:29 59° NNE 03:51:59 10° E visible
27 Dec 10.4 00:25:45 19° ENE 00:25:45 19° ENE 00:33:09 10° E visible
27 Dec 9.5 02:31:29 39° NNW 02:38:05 50° NNE 02:52:00 10° E visible
27 Dec 9.0 04:37:13 11° WNW 04:55:13 79° NNE 05:06:16 10° E visible
